Location: Casilda
(33.0440°S, 61.1680°W)
Time: 15:44:08
(UTC-03:00)

ISS - Pass Details

Date: 12 June 2021
Orbit: 417 x 422 km, 51.6° (Epoch: 16 June)

Event Time Altitude Azimuth Distance (km) Brightness Sun altitude
Exits shadow 05:51:12 24° 64° (ENE) 915 -1.4 -27.2°
Drops below altitude 10° 05:52:45 10° 56° (ENE) 1,510 -0.1 -26.9°
Sets 05:54:51 0° 52° (NE) 2,367 1.1 -26.5°
